Location: Pian di Sc�
(43.6333°N, 11.5500°E)
Time: 18:15:31
(UTC+00:00)

Cosmos 1943 - Pass Details

Date: 07 August 2020
Orbit: 834 x 849 km, 71.0° (Epoch: 19 September)

Event Time Altitude Azimuth Distance (km) Brightness Sun altitude
Rises 03:06:09 0° 333° (NNW) 3,391 6.5 -10.9°
Reaches altitude 10° 03:08:36 10° 332° (NNW) 2,453 5.7 -10.5°
Maximum altitude 03:14:13 77° 248° (WSW) 859 3.1 -9.6°
Drops below altitude 10° 03:19:48 10° 163° (SSE) 2,442 5.5 -8.8°
Sets 03:22:14 0° 162° (SSE) 3,374 6.2 -8.4°
